Cut Bank, MT

8:13 PM MST on November 17, 2019 (GMT -0700)
Cut Bank Municipal

Weather History for KCTB - September, 2019

Change the Weather History Date:

Tuesday, September 10, 2019

  Actual Average Record
Temperature  
Mean Temperature 49 °F 56 °F  
Max Temperature 54 °F 70 °F 88 °F (1963)
Min Temperature 44 °F 42 °F 27 °F (1921)
Degree Days  
Heating Degree Days 16 10  
Month to date heating degree days 64 82  
Since 1 July heating degree days 237 276  
Cooling Degree Days 0 0  
Month to date cooling degree days 1 6  
Year to date cooling degree days 105 159  
Moisture  
Dew Point 43 °F    
Average Humidity 85    
Maximum Humidity 97    
Minimum Humidity 63    
Precipitation  
Precipitation 0.03 in 0.04 in 1.35 in (2005)
Month to date precipitation 0.49 0.45  
Year to date precipitation 9.32 9.11  
Snow  
Snow - - - ()
Snow Depth 0.00 in    
Sea Level Pressure  
Sea Level Pressure 30.04 in    
Wind  
Wind Speed 11 mph ()    
Max Wind Speed 20 mph    
Max Gust Speed 24 mph    
Visibility 8.4 miles    
Events Rain    
T = Trace of Precipitation, MM = Missing Value Source: Averaged Metar Reports

Daily Weather History Graph

Daily Weather History Graph

Search for Another Location

Airport or City:

Astronomy

Sep. 10, 2019 Rise Set
Actual Time 6:59 AM MDT 7:53 PM MDT
Civil Twilight 6:27 AM MDT 8:24 PM MDT
Nautical Twilight 5:48 AM MDT 9:02 PM MDT
Astronomical Twilight 5:08 AM MDT 9:43 PM MDT
Moon 6:50 PM MDT (9/10) 3:06 AM MDT (9/10)
Length of Visible Light 13h 57m
Length of Day
12h 53m
Waxing Gibbous, 90% of the Moon is Illuminated
Sep 10
Waxing Gibbous
Sep 13
Full
Sep 21
Last Quarter
Sep 28
New
Oct 5
First Quarter

Hourly Weather History & Observations

Time (MDT) Temp. Windchill Dew Point Humidity Pressure Visibility Wind Dir Wind Speed Gust Speed Precip Events Conditions
12:28 AM 48.0 °F - 45.0 °F 89% 29.95 in 10.0 mi NW 15.0 mph - N/A   Overcast
12:56 AM 48.0 °F - 46.0 °F 93% 29.96 in 6.0 mi NNW 17.3 mph - 0.01 in Rain Light Rain
1:09 AM 46.9 °F - 44.1 °F 90% 29.96 in 4.0 mi NNW 16.1 mph - 0.00 in Rain Light Rain
1:25 AM 46.9 °F - 44.1 °F 90% 29.97 in 6.0 mi NNW 11.5 mph - 0.01 in Rain Light Rain
1:56 AM 46.9 °F - 45.0 °F 93% 29.97 in 7.0 mi NNW 10.4 mph - 0.01 in   Overcast
2:15 AM 46.9 °F - 45.0 °F 93% 29.97 in 10.0 mi NNW 11.5 mph - N/A   Overcast
2:56 AM 46.9 °F - 44.1 °F 90% 29.98 in 10.0 mi NNW 11.5 mph - N/A   Overcast
3:13 AM 46.0 °F 40.2 °F 44.1 °F 93% 29.98 in 10.0 mi NNW 12.7 mph - N/A   Overcast
3:34 AM 46.0 °F 40.2 °F 43.0 °F 89% 29.98 in 10.0 mi NNW 12.7 mph - N/A   Overcast
3:56 AM 46.0 °F 39.9 °F 44.1 °F 93% 29.98 in 10.0 mi NNW 13.8 mph - N/A   Overcast
4:56 AM 46.0 °F 41.4 °F 43.0 °F 89% 29.99 in 10.0 mi NW 9.2 mph - N/A   Overcast
5:17 AM 46.0 °F 40.6 °F 43.0 °F 89% 30.00 in 9.0 mi NW 11.5 mph - N/A   Overcast
5:56 AM 46.0 °F 40.2 °F 44.1 °F 93% 30.01 in 9.0 mi North 12.7 mph - N/A   Overcast
6:10 AM 46.0 °F 41.0 °F 44.1 °F 93% 30.01 in 10.0 mi North 10.4 mph - N/A   Overcast
6:54 AM 44.6 °F 39.2 °F 42.8 °F 93% 30.02 in 6.0 mi North 10.4 mph - N/A   Overcast
6:56 AM 45.0 °F 39.7 °F 43.0 °F 93% 30.02 in 6.0 mi North 10.4 mph - N/A   Overcast
7:07 AM 45.0 °F 40.6 °F 44.1 °F 97% 30.02 in 10.0 mi North 8.1 mph - N/A   Overcast
7:19 AM 45.0 °F 39.7 °F 44.1 °F 97% 30.02 in 2.5 mi North 10.4 mph - 0.00 in Rain Light Rain
7:31 AM 45.0 °F 39.3 °F 43.0 °F 93% 30.03 in 1.8 mi North 11.5 mph - 0.01 in   Overcast
7:56 AM 45.0 °F 39.7 °F 43.0 °F 93% 30.04 in 6.0 mi North 10.4 mph - 0.01 in   Overcast
8:03 AM 45.0 °F 39.7 °F 43.0 °F 93% 30.04 in 1.8 mi North 10.4 mph - N/A   Overcast
8:08 AM 45.0 °F 40.1 °F 43.0 °F 93% 30.04 in 2.0 mi NNE 9.2 mph - N/A   Overcast
8:17 AM 45.0 °F 40.6 °F 43.0 °F 93% 30.04 in 9.0 mi North 8.1 mph - N/A   Overcast
8:26 AM 45.0 °F 39.7 °F 43.0 °F 93% 30.04 in 9.0 mi North 10.4 mph - N/A   Overcast
8:36 AM 45.0 °F 40.6 °F 43.0 °F 93% 30.05 in 9.0 mi North 8.1 mph - N/A   Overcast
8:56 AM 45.0 °F 41.2 °F 43.0 °F 93% 30.06 in 8.0 mi North 6.9 mph - N/A   Overcast
9:04 AM 46.0 °F 41.9 °F 43.0 °F 89% 30.05 in 7.0 mi North 8.1 mph - N/A   Overcast
9:46 AM 46.9 °F - 43.0 °F 86% 30.05 in 8.0 mi NNW 10.4 mph - N/A   Overcast
9:56 AM 46.9 °F - 44.1 °F 90% 30.06 in 9.0 mi North 10.4 mph - N/A   Overcast
10:09 AM 48.0 °F - 44.1 °F 86% 30.05 in 10.0 mi North 11.5 mph - N/A   Overcast
10:30 AM 50.0 °F - 44.1 °F 80% 30.05 in 10.0 mi NNW 11.5 mph - N/A   Mostly Cloudy
10:56 AM 50.0 °F - 43.0 °F 77% 30.04 in 10.0 mi NNW 12.7 mph - N/A   Scattered Clouds
11:08 AM 50.0 °F - 42.1 °F 74% 30.04 in 10.0 mi North 16.1 mph - N/A   Mostly Cloudy
11:56 AM 51.1 °F - 42.1 °F 71% 30.06 in 10.0 mi NNW 9.2 mph - N/A   Overcast
12:52 PM 48.2 °F - 42.8 °F 82% 30.06 in 9.0 mi North 11.5 mph - 0.00 in   Overcast
12:56 PM 50.0 °F - 43.0 °F 77% 30.06 in 9.0 mi NNE 12.7 mph - 0.00 in   Overcast
1:22 PM 50.0 °F - 42.1 °F 74% 30.07 in 8.0 mi North 12.7 mph - N/A   Overcast
1:31 PM 48.9 °F - 44.1 °F 83% 30.07 in 8.0 mi NNE 11.5 mph - N/A   Overcast
1:39 PM 50.0 °F - 43.0 °F 77% 30.07 in 10.0 mi NNE 11.5 mph - N/A   Overcast
1:56 PM 51.1 °F - 43.0 °F 74% 30.07 in 10.0 mi NNE 10.4 mph - N/A   Overcast
2:56 PM 52.0 °F - 41.0 °F 66% 30.07 in 10.0 mi North 11.5 mph - N/A   Overcast
3:06 PM 52.0 °F - 39.9 °F 63% 30.07 in 10.0 mi North 10.4 mph - N/A   Overcast
3:56 PM 52.0 °F - 41.0 °F 66% 30.07 in 10.0 mi North 12.7 mph - N/A   Overcast
4:56 PM 52.0 °F - 41.0 °F 66% 30.08 in 10.0 mi NE 10.4 mph - N/A   Overcast
5:56 PM 51.1 °F - 42.1 °F 71% 30.08 in 10.0 mi NNE 12.7 mph - N/A   Overcast
6:56 PM 48.9 °F - 42.1 °F 77% 30.09 in 10.0 mi NNE 13.8 mph - N/A   Overcast
7:56 PM 48.0 °F - 43.0 °F 83% 30.11 in 10.0 mi NNE 9.2 mph - N/A   Overcast
8:56 PM 46.9 °F - 42.1 °F 83% 30.13 in 10.0 mi NNE 8.1 mph - N/A   Overcast
9:56 PM 46.9 °F - 42.1 °F 83% 30.14 in 10.0 mi NNE 8.1 mph - N/A   Overcast
10:56 PM 46.9 °F - 43.0 °F 86% 30.14 in 10.0 mi North 6.9 mph - N/A   Overcast
11:56 PM 46.9 °F - 43.0 °F 86% 30.14 in 10.0 mi NNE 6.9 mph - N/A   Overcast